[[{"header":{"parameterUnit":"m.s-1","parameterCategory":1,"la1":30.2991,"la2":30.254,"lo1":-89.0895,"lo2":-89.0444,"dy":0.0017,"dx":0.0017,"nx":28,"ny":28,"refTime":"2025-01-03T09:00:00:Z","depth":0,"parameterNumber":2,"parameterNumberName":"U-component_of_WINDS"},"data":[0,0,0,0,0,0,0,0,0,0,0,0,0,0,0,0,0,0,0,0,0,0,0,0,0,0,0,0,0,0,0,0,0,0,0,0,0,0,0,0,0,0,0,0,0,0,0,0,0,0,0,0,0,0,0,0,0,0,-0.7374,-0.7374,0,-0.7366,-0.7366,-0.7365,-0.7343,-0.7343,-0.7342,-0.7342,-0.7334,-0.7334,-0.7334,0,0,0,0,0,0,0,0,0,0,0,0,0,-0.7373,-0.7373,-0.7374,-0.7374,-0.7374,-0.7366,-0.7365,-0.7365,-0.7343,-0.7343,-0.7342,-0.7342,-0.7334,-0.7334,-0.7334,0,0,0,0,0,0,0,0,0,0,0,0,0,-0.737,-0.7373,-0.7375,-0.7362,-0.7361,-0.7366,-0.7365,-0.7365,-0.7344,-0.7343,-0.7342,-0.7341,-0.7333,-0.7334,-0.7334,-0.735,0,0,-0.7335,-0.7335,0,0,0,0,0,0,0,0,-0.737,-0.737,-0.7364,-0.7363,-0.7362,-0.7355,-0.7362,-0.736,-0.7344,-0.735,-0.7342,-0.7341,-0.7341,-0.7341,-0.7341,-0.735,-0.7349,-0.7335,-0.7335,-0.7335,-0.7336,0,0,0,0,0,0,0,-0.737,-0.737,-0.7371,-0.7364,-0.7363,-0.7357,-0.7356,-0.7361,-0.735,-0.735,-0.7348,-0.7347,-0.7341,-0.7341,-0.734,-0.7349,-0.7335,-0.7335,-0.7336,-0.7336,-0.7371,-0.7372,0,0,0,0,0,0,-0.7372,-0.7371,-0.7371,-0.7371,-0.7364,-0.7358,-0.7357,-0.7358,-0.735,-0.7348,-0.7348,-0.7346,-0.734,-0.734,-0.734,-0.7358,-0.7335,-0.7336,-0.7336,-0.737,-0.7371,-0.7372,0,0,0,0,0,0,-0.7372,-0.7372,-0.7372,-0.737,-0.737,-0.7359,-0.736,-0.7358,-0.7358,-0.7348,-0.7346,-0.735,-0.734,-0.734,-0.7348,-0.7358,-0.7336,-0.7336,-0.7369,-0.737,-0.7371,-0.7395,0,0,0,0,0,0,-0.7372,-0.7373,-0.7378,-0.737,-0.737,-0.7379,-0.7361,-0.7358,-0.7359,-0.7356,-0.735,-0.7348,-0.7339,-0.7347,-0.7348,-0.7358,-0.7336,-0.7368,-0.737,-0.7371,-0.7394,-0.7397,-0.74,0,0,0,0,0,-0.7372,-0.7386,-0.7379,-0.7379,-0.7377,-0.738,-0.738,-0.7369,-0.7359,-0.7365,-0.7359,-0.7348,-0.7357,-0.7348,-0.7349,-0.7359,-0.7368,-0.7369,-0.7371,-0.7392,-0.7396,-0.74,0,0,0,0,0,0,-0.7396,-0.7384,-0.7377,-0.7388,-0.7385,-0.7376,-0.7383,-0.7374,-0.7374,-0.7372,-0.7359,-0.7358,-0.7368,-0.7364,-0.7355,-0.7374,-0.736,-0.7362,-0.7376,-0.738,-0.7383,-0.7384,-0.7337,0,0,0,0,0,-0.7402,-0.7405,-0.7395,-0.7406,-0.7405,-0.7395,-0.7396,-0.7388,-0.7384,-0.7383,-0.7377,-0.7374,-0.7376,-0.7378,-0.7379,-0.7393,-0.7391,-0.74,-0.7403,-0.7406,-0.7408,-0.7415,-0.7419,-0.7377,-0.7377,-0.7377,0,0,-0.7415,-0.741,-0.7413,-0.7411,-0.7408,-0.7411,-0.7394,-0.7399,-0.7401,-0.7384,-0.7391,-0.7387,-0.7383,-0.7394,-0.7398,-0.7391,-0.7419,-0.7408,-0.741,-0.7411,-0.7417,-0.7421,-0.7425,-0.7378,-0.7378,-0.7378,0,0,-0.7442,-0.7438,-0.7446,-0.7443,-0.7439,-0.7431,-0.7434,-0.7426,-0.7422,-0.7429,-0.7416,-0.7419,-0.7423,-0.7421,-0.742,-0.7445,-0.7436,-0.7446,-0.7464,-0.7471,-0.7474,-0.7477,-0.7486,-0.749,-0.7448,-0.7448,-0.7448,0,-0.7459,-0.7464,-0.7452,-0.7458,-0.7457,-0.7441,-0.745,-0.7448,-0.7444,-0.7444,-0.7436,-0.744,-0.7436,-0.7446,-0.7453,-0.7452,-0.7455,-0.7447,-0.7474,-0.7477,-0.748,-0.7488,-0.7492,-0.7449,-0.7449,-0.7449,-0.7449,0,-0.7486,-0.749,-0.7497,-0.7494,-0.7494,-0.7501,-0.749,-0.7492,-0.7484,-0.7478,-0.7485,-0.748,-0.748,-0.7482,-0.7474,-0.7491,-0.7487,-0.7477,-0.7462,-0.7485,-0.7493,-0.7496,-0.7451,-0.7451,-0.745,-0.745,0,0,-0.7528,-0.7517,-0.752,-0.7518,-0.7511,-0.7514,-0.752,-0.752,-0.7522,-0.752,-0.7525,-0.7528,-0.7519,-0.7518,-0.751,-0.7516,-0.7537,-0.7505,-0.7505,-0.7512,-0.7555,-0.7564,-0.7568,-0.753,-0.753,-0.7531,-0.7556,0,-0.7553,-0.7563,-0.7552,-0.7565,-0.7568,-0.7553,-0.7558,-0.7555,-0.7549,-0.7551,-0.7545,-0.7547,-0.7535,-0.7534,-0.7539,-0.7533,-0.7545,-0.7531,-0.7535,-0.7535,-0.7537,-0.7572,-0.758,-0.7604,-0.7559,-0.7559,-0.756,0,-0.7584,-0.7583,-0.7596,-0.7588,-0.7589,-0.7595,-0.7593,-0.7595,-0.7591,-0.7587,-0.7586,-0.7575,-0.7581,-0.7567,-0.7575,-0.7566,-0.7567,-0.7564,-0.7564,-0.7565,-0.755,-0.7574,-0.7612,-0.7616,-0.7565,-0.7564,-0.7564,0,-0.7614,-0.7615,-0.7623,-0.7622,-0.7613,-0.7617,-0.7614,-0.7609,-0.761,-0.7608,-0.7609,-0.7608,-0.7608,-0.7608,-0.7598,-0.7589,-0.7608,-0.7593,-0.7605,-0.7605,-0.761,-0.761,-0.7649,-0.761,-0.7609,-0.7609,-0.7609,0,-0.7644,-0.7652,-0.7637,-0.7642,-0.7651,-0.7638,-0.7648,-0.7643,-0.7638,-0.7642,-0.7628,-0.7632,-0.7619,-0.7621,-0.7613,-0.7621,-0.7621,-0.7618,-0.7616,-0.762,-0.762,-0.7621,-0.7619,-0.761,-0.761,-0.761,-0.761,0,-0.7679,-0.7668,-0.7676,-0.7667,-0.7665,-0.7672,-0.7664,-0.7669,-0.7662,-0.7667,-0.7667,-0.7657,-0.7659,-0.7649,-0.7649,-0.7644,-0.7656,-0.7651,-0.7658,-0.7656,-0.7669,-0.7668,-0.771,-0.7715,-0.7672,-0.7672,-0.7673,0,-0.7699,-0.7705,-0.7696,-0.7698,-0.7695,-0.7698,-0.7698,-0.7685,-0.7686,-0.7682,-0.7687,-0.7688,-0.7688,-0.7692,-0.7685,-0.7685,-0.768,-0.7695,-0.768,-0.7684,-0.7681,-0.7681,-0.7682,-0.7698,-0.7699,-0.7699,-0.7699,0,-0.7736,-0.773,-0.7731,-0.773,-0.7731,-0.773,-0.7727,-0.7729,-0.7716,-0.7717,-0.7719,-0.7719,-0.772,-0.7721,-0.772,-0.7716,-0.7706,-0.7704,-0.7707,-0.7711,-0.7715,-0.7713,-0.7667,-0.7703,-0.7703,-0.7703,-0.7702,-0.7702,-0.7765,-0.7769,-0.7764,-0.7765,-0.7762,-0.776,-0.7764,-0.7757,-0.7759,-0.7758,-0.775,-0.7754,-0.7749,-0.7746,-0.7743,-0.7746,-0.7739,-0.7743,-0.7744,-0.7746,-0.7748,-0.7714,-0.7746,-0.7746,-0.7746,-0.7745,-0.7745,0,-0.7801,-0.7797,-0.7798,-0.7795,-0.7796,-0.7786,-0.7783,-0.7784,-0.7788,-0.7784,-0.7784,-0.7786,-0.7788,-0.778,-0.778,-0.7783,-0.7779,-0.7784,-0.7784,-0.7783,-0.7754,-0.7752,-0.7788,-0.7788,-0.7788,-0.7788,-0.7788,-0.7788,-0.7821,-0.7829,-0.7822,-0.7828,-0.7824,-0.7827,-0.7826,-0.7824,-0.7821,-0.7824,-0.7825,-0.782,-0.7815,-0.7814,-0.7815,-0.7812,-0.7813,-0.782,-0.7816,-0.7789,-0.7785,-0.7781,-0.7779,-0.782,-0.782,-0.7845,-0.7846,-0.7846]},{"header":{"parameterUnit":"m.s-1","parameterCategory":1,"la1":30.2991,"la2":30.254,"lo1":-89.0895,"lo2":-89.0444,"dy":0.0017,"dx":0.0017,"nx":28,"ny":28,"refTime":"2025-01-03T09:00:00:Z","depth":0,"parameterNumber":3,"parameterNumberName":"V-component_of_WINDS"},"data":[0,0,0,0,0,0,0,0,0,0,0,0,0,0,0,0,0,0,0,0,0,0,0,0,0,0,0,0,0,0,0,0,0,0,0,0,0,0,0,0,0,0,0,0,0,0,0,0,0,0,0,0,0,0,0,0,0,0,-1.9011,-1.9013,0,-1.9177,-1.9179,-1.9181,-1.9238,-1.9238,-1.9237,-1.9237,-1.9402,-1.9407,-1.9412,0,0,0,0,0,0,0,0,0,0,0,0,0,-1.8743,-1.8748,-1.9011,-1.9013,-1.9015,-1.9177,-1.9179,-1.9181,-1.9239,-1.9238,-1.9237,-1.9236,-1.9401,-1.9407,-1.9413,0,0,0,0,0,0,0,0,0,0,0,0,0,-1.8879,-1.8749,-1.9011,-1.9064,-1.907,-1.9176,-1.9179,-1.9182,-1.9239,-1.9238,-1.9237,-1.9236,-1.9399,-1.9406,-1.9413,-1.9478,0,0,-1.9436,-1.944,0,0,0,0,0,0,0,0,-1.8871,-1.8889,-1.9054,-1.906,-1.9067,-1.9186,-1.9145,-1.9281,-1.9239,-1.9174,-1.9237,-1.9236,-1.9331,-1.9344,-1.9377,-1.9486,-1.9493,-1.9437,-1.9442,-1.9445,-1.9447,0,0,0,0,0,0,0,-1.8862,-1.8882,-1.9077,-1.9056,-1.9064,-1.9079,-1.9097,-1.9171,-1.9256,-1.918,-1.9185,-1.9204,-1.9334,-1.937,-1.9381,-1.9496,-1.9437,-1.9443,-1.9448,-1.9451,-1.9669,-1.967,0,0,0,0,0,0,-1.8844,-1.8874,-1.9071,-1.9082,-1.8965,-1.9084,-1.9105,-1.9149,-1.9255,-1.9271,-1.9204,-1.9206,-1.9357,-1.9372,-1.9387,-1.9472,-1.9445,-1.9452,-1.9456,-1.9668,-1.9669,-1.9671,0,0,0,0,0,0,-1.8838,-1.8861,-1.9065,-1.8979,-1.9006,-1.909,-1.9139,-1.9153,-1.9188,-1.9274,-1.9289,-1.9225,-1.9357,-1.9377,-1.9456,-1.9478,-1.9455,-1.9462,-1.9666,-1.9668,-1.967,-1.964,0,0,0,0,0,0,-1.883,-1.8859,-1.8884,-1.8979,-1.9011,-1.9131,-1.914,-1.9157,-1.9201,-1.9205,-1.9297,-1.9311,-1.9358,-1.9445,-1.9464,-1.9488,-1.9468,-1.9664,-1.9667,-1.9669,-1.9639,-1.964,-1.9642,0,0,0,0,0,-1.882,-1.8867,-1.8885,-1.8908,-1.9044,-1.9132,-1.915,-1.9204,-1.9203,-1.9229,-1.9285,-1.9308,-1.9473,-1.9452,-1.9474,-1.9501,-1.9663,-1.9666,-1.9669,-1.9639,-1.964,-1.9642,0,0,0,0,0,0,-1.877,-1.8881,-1.8901,-1.8981,-1.9047,-1.9142,-1.9176,-1.9203,-1.927,-1.927,-1.9334,-1.9354,-1.9429,-1.9473,-1.9448,-1.9571,-1.957,-1.9577,-1.9539,-1.9541,-1.9542,-1.953,-1.9474,0,0,0,0,0,-1.8769,-1.8832,-1.8925,-1.8986,-1.9018,-1.9092,-1.9132,-1.9168,-1.9239,-1.9266,-1.9327,-1.9394,-1.9461,-1.9504,-1.957,-1.9646,-1.9668,-1.9676,-1.9677,-1.9678,-1.9683,-1.9729,-1.9734,-1.968,-1.968,-1.968,0,0,-1.8766,-1.8834,-1.8869,-1.8978,-1.9033,-1.9097,-1.9115,-1.918,-1.9228,-1.9276,-1.9355,-1.9403,-1.9481,-1.956,-1.9598,-1.9599,-1.9703,-1.9681,-1.9681,-1.9687,-1.9732,-1.9737,-1.9742,-1.9682,-1.9682,-1.9681,0,0,-1.8793,-1.8851,-1.8909,-1.8965,-1.905,-1.9099,-1.9113,-1.9205,-1.9239,-1.932,-1.9358,-1.9415,-1.9529,-1.9584,-1.9627,-1.9679,-1.9704,-1.9699,-1.9705,-1.9748,-1.9753,-1.9757,-1.9776,-1.9782,-1.9704,-1.9704,-1.9704,0,-1.8778,-1.8876,-1.8935,-1.9001,-1.9048,-1.9096,-1.9156,-1.9207,-1.9308,-1.934,-1.9341,-1.9487,-1.9543,-1.9636,-1.9649,-1.9682,-1.97,-1.9688,-1.9747,-1.9752,-1.9757,-1.9776,-1.9783,-1.9703,-1.9703,-1.9703,-1.9703,0,-1.8854,-1.8922,-1.8959,-1.9058,-1.911,-1.9171,-1.924,-1.9285,-1.9318,-1.9367,-1.945,-1.9519,-1.9602,-1.9627,-1.9658,-1.9725,-1.9724,-1.9735,-1.9735,-1.976,-1.9779,-1.9787,-1.9701,-1.9702,-1.9702,-1.9702,0,0,-1.8852,-1.8986,-1.8998,-1.9045,-1.9144,-1.9197,-1.9262,-1.9344,-1.9382,-1.9451,-1.9507,-1.9604,-1.9616,-1.9665,-1.9704,-1.9742,-1.978,-1.9749,-1.9752,-1.9753,-1.986,-1.985,-1.9858,-1.9798,-1.9799,-1.9801,-1.9853,0,-1.8892,-1.9011,-1.9068,-1.9162,-1.9226,-1.9275,-1.9332,-1.9399,-1.9447,-1.9508,-1.9561,-1.9629,-1.964,-1.967,-1.971,-1.9767,-1.9802,-1.9764,-1.985,-1.9853,-1.9829,-1.9868,-1.9857,-1.9903,-1.9861,-1.9862,-1.9863,0,-1.8954,-1.9026,-1.9127,-1.9221,-1.925,-1.93,-1.9381,-1.9439,-1.9516,-1.9549,-1.9605,-1.9643,-1.9713,-1.9709,-1.9807,-1.978,-1.9819,-1.9853,-1.9856,-1.9865,-1.9859,-1.9878,-1.9919,-1.9926,-1.9875,-1.9874,-1.9874,0,-1.8943,-1.9065,-1.9142,-1.918,-1.9291,-1.9325,-1.9373,-1.9449,-1.9496,-1.9567,-1.9599,-1.9676,-1.9719,-1.9778,-1.9836,-1.9828,-1.9929,-1.9929,-1.9958,-1.9956,-1.9976,-1.9974,-2.0024,-2.0001,-2.0001,-2.0001,-2.0001,0,-1.8982,-1.9042,-1.9139,-1.9185,-1.9255,-1.932,-1.9387,-1.9438,-1.9506,-1.9564,-1.9611,-1.9664,-1.9738,-1.98,-1.9846,-1.9921,-1.994,-1.9968,-1.998,-1.9964,-1.996,-1.999,-1.9988,-2.0003,-2.0003,-2.0002,-2.0002,0,-1.898,-1.9048,-1.9135,-1.9234,-1.9261,-1.9307,-1.9392,-1.944,-1.9492,-1.9565,-1.9586,-1.9667,-1.9743,-1.9808,-1.9907,-1.9939,-2.0016,-2.003,-1.9991,-1.9997,-2.0022,-2.0019,-2.0092,-2.0105,-2.0073,-2.0074,-2.0074,0,-1.9,-1.9048,-1.9154,-1.9197,-1.9245,-1.9313,-1.9362,-1.9429,-1.9478,-1.9572,-1.9608,-1.9689,-1.9756,-1.9876,-1.9943,-2.0021,-2.0036,-2.0057,-2.0048,-2.0032,-2.0037,-2.0034,-2.0039,-2.0057,-2.0057,-2.0057,-2.0057,0,-1.9029,-1.9061,-1.913,-1.9213,-1.9271,-1.9338,-1.9406,-1.9439,-1.9518,-1.9571,-1.9651,-1.9704,-1.9808,-1.9887,-1.9972,-2.0021,-2.0052,-2.006,-2.0071,-2.0055,-2.003,-2.0044,-1.9992,-2.0057,-2.0057,-2.0057,-2.0057,-2.0057,-1.9039,-1.9085,-1.9168,-1.9244,-1.9304,-1.9367,-1.9418,-1.9478,-1.9546,-1.9637,-1.9672,-1.9754,-1.9832,-1.995,-2.0,-2.0064,-2.0069,-2.0084,-2.0088,-2.009,-2.0088,-2.0021,-2.008,-2.008,-2.008,-2.008,-2.008,0,-1.9071,-1.9127,-1.9197,-1.9293,-1.9354,-1.9381,-1.9459,-1.9508,-1.958,-1.9651,-1.9718,-1.9811,-1.9889,-1.9963,-2.0045,-2.0083,-2.01,-2.0102,-2.01,-2.0111,-2.008,-2.0063,-2.0088,-2.0088,-2.0088,-2.0088,-2.0088,-2.0088,-1.9094,-1.9174,-1.9216,-1.9326,-1.9382,-1.9464,-1.9506,-1.9566,-1.9623,-1.9725,-1.9791,-1.984,-1.9913,-2.0002,-2.0074,-2.0095,-2.0122,-2.0121,-2.0145,-2.0114,-2.0113,-2.0111,-2.0095,-2.0127,-2.0127,-2.0171,-2.0171,-2.0171]}]]